C/2022 N2 ( PanSTARRS )

Japanese version
Home page
Updated on May 6, 2023

---------------------------------------------------------------------

* Profile

Discovery Date July 4, 2022
Magnitude 20.6 mag
Discoverer Pan-STARRS 2 telescope (Haleakala)

* Orbital Elements

Epoch 2023 Feb. 25.0 TT = JDT 2460000.5
T 2025 July 31.32655 TT                                 Rudenko
q   3.8270264            (2000.0)            P               Q
z  -0.0010823      Peri.   75.33117     +0.81555112     -0.57535885
 +/-0.0007567      Node   319.74081     +0.48717764     +0.74042188
e   1.0041419      Incl.    5.50144     +0.31230484     +0.34747321
>From 39 observations 2022 June 2-2023 May 1, mean residual 0".3.

* Finding Charts

* Magnitudes Graph

        m1 = 6.0 + 5 log d + 10.0 log r

---------------------------------------------------------------------

The orbital elements are published on M.P.E.C. 2023-J29.
The charts are made with StellaNavigator Ver.10 (AstroArts).
The magnitudes graphs are made with Comet for Windows.

---------------------------------------------------------------------

Copyright(C) Seiichi Yoshida (comet@aerith.net). All rights reserved.